Theta_e
281 281 281 281 281 281 282 282 284 284 285 285 285 285 285 285 286 287 288 289 292 294
280 280 280 280 281 281 282 283 283 284 283 284 284 285 284 284 284 285 286 287 289 291
280 280 280 280 280 280 281 282 282 282 282 283 283 284 284 283 284 284 285 286 287 289
279 280 280 280 280 280 281 281 281 281 281 282 282 282 282 282 283 283 283 284 285 287
279 279 279 279 279 280 280 281 281 281 281 281 281 282 281 281 282 282 282 283 284 285
278 278 278 278 279 280 279 280 280 280 280 280 280 280 281 281 281 281 282 282 283 284
277 277 278 278 279 279 279 279 279 279 279 280 280 280 281 281 281 281 281 282 283 283
277 277 278 278 278 279 279 279 279 279 279 279 280 280 280 280 280 280 280 281 283 284
277 277 277 277 277 278 278 278 278 278 278 279 280 283 284 284 281 281 281 280 281 283
276 276 276 277 277 277 276 277 277 278 278 278 279 283 284 285 282 282 281 281 281 282
275 275 276 276 275 276 276 276 277 277 278 278 279 283 285 285 282 282 282 282 282 282
275 274 275 275 275 276 277 277 278 279 279 279 279 283 284 284 282 282 281 282 282 282
275 275 275 276 277 277 278 278 279 279 280 282 281 284 285 284 282 281 281 281 282 285
275 276 277 277 277 278 278 279 278 279 280 281 283 282 286 286 283 282 281 280 281 282
Wind_Speed
11 8 9 10 11 11 10 11 13 13 13 14 13 11 12 11 11 12 11 13 10 10
12 13 13 15 13 11 13 12 14 15 15 16 15 14 13 11 14 13 13 13 12 11
14 15 15 15 16 17 16 16 16 16 16 16 16 15 15 13 13 15 12 12 14 13
14 16 17 16 17 17 18 17 18 17 17 17 17 16 16 16 16 17 16 16 16 17
15 16 17 18 19 19 20 19 19 18 19 18 18 17 18 18 17 17 17 17 17 17
17 17 18 18 19 19 20 21 20 20 20 20 19 19 19 19 19 19 18 18 18 18
19 19 19 19 19 20 19 21 20 20 21 21 21 20 20 19 20 20 19 19 19 19
19 19 20 20 20 21 20 20 21 22 21 22 20 17 20 20 20 21 21 20 19 19
20 21 21 21 21 21 22 21 22 22 22 23 17 31 36 31 20 20 20 19 20 19
21 22 22 22 22 22 23 22 22 23 22 24 24 36 38 38 21 19 19 20 19 17
22 23 23 23 23 23 21 22 21 22 23 23 21 37 38 38 24 20 21 21 20 20
23 25 24 24 25 23 21 21 21 21 23 23 23 36 38 33 20 19 21 19 20 20
24 24 25 23 23 22 21 22 19 22 22 29 26 34 38 31 15 17 14 17 19 32
24 23 23 23 20 20 18 19 20 22 21 23 23 23 35 35 18 14 12 13 14 15
Wind_Direction
308 303 302 302 300 295 293 292 294 288 285 282 283 286 290 287 281 276 272 269 265 270
309 308 302 298 295 292 290 288 286 289 288 281 278 276 275 274 277 276 273 269 267 263
301 298 296 295 292 289 287 285 284 283 281 278 275 274 271 269 267 269 271 268 263 262
295 294 291 287 287 287 287 287 284 282 280 277 275 271 269 265 263 263 265 268 268 267
292 290 288 287 287 287 285 283 281 280 276 272 269 266 264 264 263 260 259 261 264 263
294 292 288 287 287 285 284 282 281 279 276 274 270 267 263 262 261 258 256 255 255 258
297 294 291 289 286 284 282 280 277 273 272 271 270 266 263 260 260 258 255 252 252 254
296 294 293 290 288 285 280 276 274 273 269 267 264 261 259 256 255 255 256 253 251 251
300 300 296 293 291 288 284 279 277 273 269 266 260 261 262 263 253 250 249 249 247 246
302 300 298 295 293 289 286 283 277 272 268 265 261 261 261 260 257 251 245 245 247 245
303 300 299 297 293 289 286 282 277 272 267 264 262 261 260 259 253 248 244 241 243 245
304 302 299 295 293 289 285 282 277 273 269 263 259 258 258 257 250 244 240 237 238 240
302 299 296 293 294 290 286 283 281 278 269 262 260 255 253 249 243 240 235 234 236 242
303 301 299 296 296 294 296 294 288 283 277 270 259 251 250 246 237 231 230 231 233 235